OMD606 KLAS-KMZJ

Flight info

Callsign OMD606
Flight time N/A
Altitude 39000
Route RASLR3 ZAYNE DRK MAIER BRUSR TFD
Aircraft A320/M-SDE3FGHIRWY/LB1

Departure

Time N/A
Airport Harry Reid International Airport (KLAS)

Arrival

Time 2026-05-07 21:56
Airport Pinal Airpark (KMZJ)
Time Latitude Longitude Altitude Speed Heading
2026-05-07 21:29 34.22701 -112.17343 38928 ft 445 kts 167°
2026-05-07 21:29 34.19675 -112.16556 38925 ft 445 kts 167°
2026-05-07 21:30 34.13647 -112.14976 38699 ft 445 kts 167°
2026-05-07 21:30 34.10630 -112.14184 38455 ft 444 kts 168°
2026-05-07 21:30 34.07597 -112.13459 38164 ft 444 kts 169°
2026-05-07 21:31 34.04550 -112.12814 37888 ft 444 kts 169°
2026-05-07 21:31 34.01497 -112.12228 37615 ft 445 kts 170°
2026-05-07 21:31 33.98450 -112.11677 37331 ft 440 kts 170°
2026-05-07 21:31 33.95431 -112.11138 36900 ft 437 kts 169°
2026-05-07 21:32 33.92431 -112.10590 36466 ft 435 kts 169°
2026-05-07 21:32 33.89445 -112.10030 36024 ft 432 kts 168°
2026-05-07 21:32 33.86479 -112.09462 35568 ft 431 kts 167°
2026-05-07 21:32 33.83532 -112.08889 35087 ft 430 kts 167°
2026-05-07 21:33 33.80660 -112.08329 34628 ft 429 kts 166°
2026-05-07 21:33 33.77709 -112.07758 34126 ft 429 kts 166°
2026-05-07 21:33 33.74752 -112.07191 33585 ft 430 kts 166°
2026-05-07 21:33 33.71801 -112.06630 33071 ft 429 kts 166°
2026-05-07 21:34 33.68860 -112.06073 32563 ft 427 kts 166°
2026-05-07 21:34 33.65962 -112.05523 32051 ft 427 kts 166°
2026-05-07 21:34 33.63037 -112.04964 31544 ft 426 kts 166°
2026-05-07 21:34 33.60104 -112.04402 31033 ft 426 kts 166°
2026-05-07 21:35 33.57176 -112.03840 30530 ft 425 kts 166°
2026-05-07 21:35 33.54259 -112.03284 30002 ft 425 kts 166°
2026-05-07 21:35 33.51343 -112.02731 29458 ft 423 kts 166°
2026-05-07 21:35 33.48440 -112.02187 28992 ft 420 kts 166°
2026-05-07 21:36 33.45560 -112.01644 28517 ft 418 kts 166°
2026-05-07 21:36 33.42698 -112.01100 28064 ft 415 kts 166°
2026-05-07 21:36 33.39848 -112.00556 27600 ft 413 kts 166°
2026-05-07 21:36 33.37016 -112.00018 27147 ft 411 kts 166°
2026-05-07 21:37 33.34192 -111.99481 26694 ft 410 kts 166°
2026-05-07 21:37 33.31382 -111.98947 26223 ft 408 kts 166°
2026-05-07 21:37 33.28612 -111.98419 25763 ft 407 kts 166°
2026-05-07 21:37 33.25820 -111.97890 25300 ft 406 kts 166°
2026-05-07 21:38 33.22995 -111.97357 24803 ft 405 kts 166°
2026-05-07 21:38 33.20218 -111.96828 24296 ft 404 kts 166°
2026-05-07 21:38 33.17440 -111.96301 23783 ft 404 kts 166°
2026-05-07 21:38 33.14670 -111.95780 23240 ft 403 kts 166°
2026-05-07 21:39 33.11956 -111.95273 22701 ft 400 kts 166°
2026-05-07 21:39 33.09220 -111.94761 22196 ft 395 kts 166°
2026-05-07 21:39 33.06506 -111.94250 21681 ft 392 kts 166°
2026-05-07 21:39 33.03820 -111.93741 21108 ft 390 kts 166°
2026-05-07 21:40 33.01182 -111.93243 20848 ft 378 kts 166°
2026-05-07 21:40 32.98618 -111.92765 20595 ft 368 kts 166°
2026-05-07 21:40 32.96113 -111.92297 20351 ft 362 kts 166°
2026-05-07 21:40 32.93639 -111.91832 20103 ft 359 kts 166°
2026-05-07 21:41 32.91177 -111.91364 19861 ft 357 kts 165°
2026-05-07 21:41 32.88814 -111.90578 19617 ft 350 kts 153°
2026-05-07 21:41 32.86672 -111.89281 19384 ft 343 kts 142°
2026-05-07 21:41 32.85374 -111.88214 19222 ft 341 kts 140°
2026-05-07 21:42 32.83441 -111.86603 18990 ft 340 kts 140°
2026-05-07 21:42 32.81513 -111.85008 18689 ft 335 kts 140°
2026-05-07 21:42 32.79607 -111.83434 18255 ft 333 kts 141°
2026-05-07 21:42 32.77701 -111.81859 17755 ft 332 kts 141°
2026-05-07 21:43 32.75242 -111.79830 17587 ft 316 kts 141°
2026-05-07 21:43 32.73466 -111.78368 17513 ft 304 kts 141°
2026-05-07 21:43 32.72298 -111.77405 17467 ft 302 kts 141°
2026-05-07 21:43 32.70572 -111.75973 17401 ft 304 kts 141°
2026-05-07 21:44 32.68837 -111.74535 17329 ft 304 kts 141°
2026-05-07 21:44 32.67106 -111.73102 17251 ft 304 kts 141°
2026-05-07 21:44 32.65372 -111.71669 17190 ft 303 kts 141°
2026-05-07 21:44 32.63642 -111.70241 17118 ft 303 kts 141°
2026-05-07 21:45 32.61931 -111.68830 16849 ft 302 kts 141°
2026-05-07 21:45 32.60184 -111.67390 16455 ft 302 kts 142°
2026-05-07 21:45 32.58481 -111.65987 16047 ft 302 kts 142°
2026-05-07 21:45 32.56749 -111.64563 15637 ft 303 kts 142°
2026-05-07 21:46 32.55018 -111.63142 15231 ft 303 kts 143°
2026-05-07 21:46 32.53280 -111.61717 14818 ft 304 kts 143°
2026-05-07 21:46 32.51541 -111.60292 14406 ft 304 kts 143°
2026-05-07 21:46 32.49801 -111.58865 13988 ft 304 kts 143°
2026-05-07 21:47 32.48062 -111.57438 13544 ft 304 kts 143°
2026-05-07 21:47 32.46316 -111.56007 13110 ft 304 kts 143°
2026-05-07 21:47 32.44583 -111.54588 12708 ft 302 kts 143°
2026-05-07 21:47 32.42856 -111.53173 12288 ft 300 kts 143°
2026-05-07 21:48 32.41145 -111.51771 11881 ft 299 kts 144°
2026-05-07 21:48 32.39436 -111.50368 11452 ft 298 kts 143°
2026-05-07 21:48 32.37847 -111.48809 11033 ft 296 kts 132°
2026-05-07 21:48 32.36472 -111.47007 10622 ft 295 kts 130°
2026-05-07 21:49 32.35116 -111.45231 10213 ft 294 kts 131°
2026-05-07 21:49 32.33745 -111.43443 9794 ft 293 kts 131°
2026-05-07 21:49 32.32392 -111.41682 9347 ft 281 kts 131°
2026-05-07 21:49 32.31124 -111.40006 8954 ft 267 kts 127°
2026-05-07 21:50 32.30285 -111.38121 8558 ft 255 kts 104°
2026-05-07 21:50 32.30119 -111.36094 8167 ft 244 kts 83°
2026-05-07 21:50 32.30586 -111.34215 7783 ft 235 kts 61°
2026-05-07 21:50 32.31561 -111.32717 7397 ft 227 kts 40°
2026-05-07 21:51 32.32869 -111.31736 7027 ft 223 kts 25°
2026-05-07 21:51 32.34272 -111.30909 6650 ft 227 kts 25°
2026-05-07 21:51 32.35672 -111.30068 6281 ft 230 kts 25°
2026-05-07 21:51 32.37080 -111.29217 5879 ft 223 kts 25°
2026-05-07 21:52 32.38448 -111.28390 5495 ft 218 kts 25°
2026-05-07 21:52 32.39777 -111.27585 5133 ft 210 kts 24°
2026-05-07 21:52 32.41018 -111.26832 4914 ft 193 kts 24°
2026-05-07 21:52 32.42181 -111.26127 4659 ft 182 kts 25°
2026-05-07 21:53 32.43259 -111.25473 4392 ft 167 kts 24°
2026-05-07 21:53 32.44303 -111.25125 4143 ft 148 kts 351°
2026-05-07 21:53 32.45162 -111.25652 3890 ft 138 kts 315°
2026-05-07 21:53 32.45826 -111.26448 3640 ft 135 kts 315°
2026-05-07 21:54 32.46488 -111.27225 3417 ft 134 kts 314°
2026-05-07 21:54 32.47145 -111.27998 3182 ft 133 kts 315°
2026-05-07 21:54 32.47790 -111.28758 2934 ft 132 kts 313°
2026-05-07 21:54 32.48438 -111.29521 2670 ft 133 kts 315°
2026-05-07 21:55 32.49095 -111.30291 2405 ft 131 kts 314°
2026-05-07 21:55 32.49743 -111.31058 2102 ft 132 kts 313°
2026-05-07 21:55 32.50383 -111.31832 1924 ft 131 kts 316°
2026-05-07 21:55 32.50970 -111.32519 1896 ft 99 kts 315°
2026-05-07 21:56 32.51337 -111.32950 1895 ft 49 kts 315°
2026-05-07 21:56 32.51500 -111.33137 1887 ft 30 kts 316°
2026-05-07 21:56 32.51653 -111.33284 1889 ft 23 kts 344°
2026-05-07 21:56 32.51740 -111.33226 1892 ft 14 kts 78°
2026-05-07 21:57 32.51684 -111.33126 1893 ft 17 kts 135°
2026-05-07 21:57 32.51590 -111.33015 1894 ft 21 kts 134°
2026-05-07 21:57 32.51478 -111.32880 1895 ft 25 kts 137°
2026-05-07 21:57 32.51354 -111.32733 1895 ft 25 kts 134°
2026-05-07 21:58 32.51222 -111.32573 1896 ft 29 kts 134°
2026-05-07 21:58 32.51085 -111.32407 1897 ft 27 kts 134°
2026-05-07 21:58 32.50971 -111.32272 1898 ft 12 kts 136°
2026-05-07 21:58 32.50962 -111.32262 1898 ft 0 kts 136°
2026-05-07 21:59 32.50958 -111.32258 1896 ft 2 kts 136°
2026-05-07 22:00 32.50929 -111.32225 1898 ft 9 kts 135°
2026-05-07 22:00 32.50884 -111.32171 1899 ft 10 kts 135°
2026-05-07 22:00 32.50833 -111.32102 1888 ft 12 kts 114°
2026-05-07 22:00 32.50830 -111.32016 1890 ft 4 kts 57°
2026-05-07 22:01 32.50837 -111.32009 1897 ft 0 kts 48°